TimeCST,TemperatureF,Dew PointF,Humidity,Sea Level PressureIn,VisibilityMPH,Wind Direction,Wind SpeedMPH,Gust SpeedMPH,PrecipitationIn,Events,Conditions,WindDirDegrees,DateUTC
1:52 AM,19.9,16.0,85,30.25,10.0,NNW,18.4,26.5,0.00,,Overcast,340,2013-03-05 07:52:00
2:52 AM,19.0,15.1,85,30.29,10.0,NNW,20.7,28.8,N/A,,Overcast,340,2013-03-05 08:52:00
3:06 AM,19.4,15.8,86,30.21,10.0,NNW,21.9,27.6,N/A,,Overcast,340,2013-03-05 09:06:00
3:52 AM,19.0,14.0,81,30.32,10.0,NNW,21.9,31.1,N/A,,Overcast,330,2013-03-05 09:52:00
4:52 AM,17.1,12.0,81,30.36,10.0,NNW,23.0,-,N/A,,Overcast,330,2013-03-05 10:52:00
5:52 AM,14.0,10.0,84,30.39,6.0,NNW,12.7,23.0,0.00,Snow,Light Snow,330,2013-03-05 11:52:00
6:33 AM,14.0,10.4,86,30.32,6.0,NW,11.5,-,N/A,Snow,Light Snow,320,2013-03-05 12:33:00
6:52 AM,14.0,10.0,84,30.42,5.0,NNW,15.0,-,0.00,Snow,Light Snow,330,2013-03-05 12:52:00
7:52 AM,15.1,10.0,80,30.43,6.0,NNW,13.8,-,0.00,Snow,Light Snow,330,2013-03-05 13:52:00
8:52 AM,16.0,10.9,81,30.45,5.0,NNW,15.0,-,0.00,Snow,Light Snow,330,2013-03-05 14:52:00
9:16 AM,17.1,10.9,77,30.35,8.0,NNW,18.4,24.2,0.00,Snow,Light Snow,330,2013-03-05 15:16:00
9:52 AM,18.0,10.9,74,30.46,7.0,NW,16.1,-,0.00,Snow,Light Snow,320,2013-03-05 15:52:00
10:52 AM,19.0,12.0,74,30.47,10.0,NW,13.8,-,0.00,,Overcast,320,2013-03-05 16:52:00
11:52 AM,19.0,12.9,77,30.48,6.0,NW,17.3,-,0.00,Snow,Light Snow,320,2013-03-05 17:52:00
12:19 PM,19.9,12.9,74,30.38,2.5,NW,13.8,-,0.00,Snow,Light Snow,320,2013-03-05 18:19:00
12:26 PM,19.9,12.9,74,30.38,3.0,NNW,9.2,-,0.00,Snow,Light Snow,340,2013-03-05 18:26:00
12:52 PM,21.0,12.9,71,30.48,9.0,North,12.7,-,0.00,,Overcast,350,2013-03-05 18:52:00
1:52 PM,19.9,12.9,74,30.48,4.0,North,9.2,-,0.00,Snow,Light Snow,360,2013-03-05 19:52:00
2:52 PM,21.0,12.9,71,30.49,6.0,NW,10.4,-,0.00,Snow,Light Snow,310,2013-03-05 20:52:00
3:52 PM,21.0,14.0,74,30.48,10.0,North,8.1,-,0.00,,Overcast,360,2013-03-05 21:52:00
4:52 PM,21.0,14.0,74,30.47,10.0,North,8.1,-,N/A,,Overcast,10,2013-03-05 22:52:00
5:19 PM,19.9,12.0,71,30.37,10.0,North,6.9,-,N/A,,Partly Cloudy,10,2013-03-05 23:19:00
5:52 PM,19.9,12.0,71,30.47,10.0,North,6.9,-,N/A,,Clear,10,2013-03-05 23:52:00
6:52 PM,15.1,10.0,80,30.48,10.0,NE,5.8,-,N/A,,Clear,40,2013-03-06 00:52:00
7:52 PM,12.0,8.1,84,30.48,10.0,ENE,5.8,-,N/A,,Clear,60,2013-03-06 01:52:00
8:52 PM,10.9,8.1,88,30.49,10.0,Calm,Calm,-,N/A,,Partly Cloudy,0,2013-03-06 02:52:00
9:52 PM,8.1,3.9,83,30.50,10.0,Calm,Calm,-,N/A,,Clear,0,2013-03-06 03:52:00
10:52 PM,7.0,3.0,84,30.51,10.0,East,3.5,-,N/A,,Clear,90,2013-03-06 04:52:00
11:52 PM,6.1,3.0,87,30.51,9.0,East,9.2,-,N/A,,Clear,90,2013-03-06 05:52:00